Regional Weather Roundup
Issued by NWS

Home | Current Version | Previous Version | Text Only | Print | Product List | Glossary Off
Versions: 1 2 3 4 5 6 7 8 9 10 11 12 13 14 15 16 17 18 19 20 21 22 23 24 25 26 27 28 29 30 31 32 33 34 35 36 37 38 39 40 41 42 43 44 45 46 47 48 49 50

000
ASUS43 KDTX 301801
RWRMI
MICHIGAN HOURLY REGIONAL WEATHER ROUNDUP
NATIONAL WEATHER SERVICE DETROIT/PONTIAC MI
200 PM EDT TUE SEP 30 2014

NOTE: "FAIR" INDICATES FEW OR NO CLOUDS BELOW 12,000 FEET WITH NO
SIGNIFICANT WEATHER AND/OR OBSTRUCTION TO VISIBILITY.

MIZ047>049-052>055-059>063-066>070-074>076-081>083-301900-
SOUTHEAST LOWER MICHIGAN

CITY           SKY/WX    TMP DP  RH WIND       PRES   REMARKS
ADRIAN         CLOUDY    57  48  72 NE10      29.99S
6HR MIN TEMP:  50; 6HR MAX TEMP:  57; 6HR PCP: TRACE;

ALMA           CLOUDY    53  46  77 NW5       30.03R
ANN ARBOR      CLOUDY    59  47  64 N9        29.97F
BAD AXE        CLOUDY    52  52 100 N10G17    29.98S
6HR MIN TEMP:  49; 6HR MAX TEMP:  52;

CARO           LGT RAIN  51  49  94 N8        30.00S
DETROIT CITY   CLOUDY    57  50  77 N8        29.99R
6HR MIN TEMP:  54; 6HR MAX TEMP:  59;

DETROIT        CLOUDY    59  49  69 NW7       29.97F
6HR MIN TEMP:  53; 6HR MAX TEMP:  59;

FLINT          CLOUDY    55  48  77 N10       30.01S
6HR MIN TEMP:  51; 6HR MAX TEMP:  56;

GROSSE ILE     CLOUDY    57  52  82 NW9       29.95F
HILLSDALE      CLOUDY    55  50  85 N5        29.99S
HOWELL         CLOUDY    54  48  81 N6        29.99F
6HR MIN TEMP:  49; 6HR MAX TEMP:  54;


CITY           SKY/WX    TMP DP  RH WIND       PRES   REMARKS
JACKSON        CLOUDY    57  50  77 N3        29.99S
6HR MIN TEMP:  49; 6HR MAX TEMP:  57; 6HR PCP:  0.01;

LAMBERTVILLE   CLOUDY    55  50  82 N8        29.98S
LANSING        CLOUDY    55  46  71 N8        30.01S
6HR MIN TEMP:  49; 6HR MAX TEMP:  56;

LAPEER         CLOUDY    51  47  86 N7        29.99S
MASON          CLOUDY    55  47  76 N6        29.99F
MONROE         CLOUDY    57  52  82 NW7       29.96S
MT. CLEMENS    CLOUDY    55  51  88 N10       29.95R
6HR MIN TEMP:  53; 6HR MAX TEMP:  56; 6HR PCP: TRACE;

PONTIAC        CLOUDY    55  47  74 N10       29.97S
6HR MIN TEMP:  51; 6HR MAX TEMP:  56; 6HR PCP: TRACE;

PORT HOPE        N/A     53  51  93 VRB3      29.96S
6HR MIN TEMP:  52; 6HR MAX TEMP:  54; 6HR PCP:  0.02;

PORT HURON     CLOUDY    54  50  87 NW8       29.97S FOG
TRI CITIES     CLOUDY    54  45  71 N7        30.02S
6HR MIN TEMP:  50; 6HR MAX TEMP:  55;

TROY           CLOUDY    58  50  73 N9        29.99S
SAGINAW HB     CLOUDY    54  46  76 N6        30.01S
$$
MIZ043>046-050>051-056>058-064>065-071>073-077>080-301900-
SOUTHWEST LOWER MICHIGAN

CITY           SKY/WX    TMP DP  RH WIND       PRES   REMARKS
BATTLE CREEK   CLOUDY    56  46  69 N12       30.00F
6HR MIN TEMP:  49; 6HR MAX TEMP:  58; 6HR PCP: TRACE;

BIG RAPIDS     CLOUDY    53  49  86 N5        30.02F
6HR MIN TEMP:  47; 6HR MAX TEMP:  53;

COLDWATER      CLOUDY    56  49  78 N7        29.99F
6HR MIN TEMP:  49; 6HR MAX TEMP:  56;

FREMONT        CLOUDY    52  45  78 N7        30.03S
HOLLAND        CLOUDY    56  46  69 CALM      30.03
6HR MIN TEMP:  49; 6HR MAX TEMP:  56;

GRAND RAPIDS   CLOUDY    56  49  77 N10       30.01F
6HR MIN TEMP:  49; 6HR MAX TEMP:  57;

IONIA          CLOUDY    56  48  73 NW6       30.00F
KALAMAZOO      CLOUDY    54  46  74 NW7       30.02S
6HR MIN TEMP:  48; 6HR MAX TEMP:  54; 6HR PCP: TRACE;

LUDINGTON      CLOUDY    51  48  90 N8        30.05S
6HR MIN TEMP:  47; 6HR MAX TEMP:  51; 6HR PCP:  0.01;

MARSHALL       CLOUDY    53  47  79 CALM      29.99S
MOUNT PLEASANT CLOUDY    53  46  77 N5        30.02S
6HR MIN TEMP:  48; 6HR MAX TEMP:  53;

MUSKEGON       CLOUDY    56  45  66 VRB7      30.03S
6HR MIN TEMP:  47; 6HR MAX TEMP:  56;

SOUTH HAVEN    CLOUDY    54  47  76 CALM      30.03R
$$
MIZ016>042-301900-
NORTHERN LOWER MICHIGAN

CITY           SKY/WX    TMP DP  RH WIND       PRES   REMARKS
ALPENA         CLOUDY    50  46  86 N15       30.03S
6HR MIN TEMP:  46; 6HR MAX TEMP:  50;

BEAVER ISLAND  CLOUDY    51  46  82 N5        30.07S
6HR MIN TEMP:  46; 6HR MAX TEMP:  51;

BELLAIRE       CLOUDY    51  46  80 NW3       30.05S
6HR MIN TEMP:  45; 6HR MAX TEMP:  52;

CADILLAC       CLOUDY    47  45  93 N6        30.03F
CHARLEVOIX     CLOUDY    50  46  86 NE6       30.09S
6HR MIN TEMP:  46; 6HR MAX TEMP:  51;

FRANKFORT      CLOUDY    52  46  80 N3        30.05F
GAYLORD        CLOUDY    48  44  86 NE6       30.04S
6HR MIN TEMP:  41; 6HR MAX TEMP:  48;

GRAYLING       CLOUDY    54  47  78 NE7       30.04R
6HR MIN TEMP:  44; 6HR MAX TEMP:  54;

HARBOR SPRINGS CLOUDY    51  45  79 CALM      30.05F
HOUGHTON LAKE  CLOUDY    51  45  79 N5        30.03R
6HR MIN TEMP:  45; 6HR MAX TEMP:  52;

OSCODA         CLOUDY    49  48  95 N14       30.00S FOG
PELLSTON       CLOUDY    50  44  80 NE8       30.06S
6HR MIN TEMP:  44; 6HR MAX TEMP:  51;

TRAVERSE CITY  CLOUDY    52  44  74 N6        30.05S
6HR MIN TEMP:  47; 6HR MAX TEMP:  52; 6HR PCP: TRACE;

$$
MIZ007>008-015-301900-
EASTERN UPPER MICHIGAN

CITY           SKY/WX    TMP DP  RH WIND       PRES   REMARKS
MACKINAC ISLAN CLOUDY    51  46  83 NE3       30.05F
6HR MIN TEMP:  43; 6HR MAX TEMP:  51;

NEWBERRY       CLOUDY    51  45  80 N7        30.07S
S. S. MARIE    SUNNY     57  44  62 E8        30.05F
6HR MIN TEMP:  43; 6HR MAX TEMP:  57;

$$
MIZ004>006-011>014-085-301900-
CENTRAL UPPER MICHIGAN

CITY           SKY/WX    TMP DP  RH WIND       PRES   REMARKS
MANISTIQUE     MOSUNNY   53  45  73 NW5       30.06S
SAWYER-GWINN   CLOUDY    45  39  81 N14G20    30.09F
$$
MIZ001>003-009>011-084-301900-
WESTERN UPPER MICHIGAN

CITY           SKY/WX    TMP DP  RH WIND       PRES   REMARKS
IRON MOUNTAIN  MOSUNNY   50  40  68 VRB3      30.07F
6HR MIN TEMP:  40; 6HR MAX TEMP:  51;

HOUGHTON       SUNNY     49  38  65 SE9       30.11F
6HR MIN TEMP:  41; 6HR MAX TEMP:  50;

COPPER HARBOR    N/A     48  39  71 E8        30.13F
6HR MIN TEMP:  45; 6HR MAX TEMP:  49;

$$

ABBREVIATIONS USED IN REMARKS
   TC - TEMPERATURE IN CELSIUS
  WCI - WIND CHILL INDEX
   HX - HEAT INDEX
  VSB - VISIBILITY




USA.gov is the U.S. government's official web portal to all federal, state and local government web resources and services.